Temperature
14 14 14 14 14 14 13 13 13 12 11 11 10 10 10 10 10 10 10 9 9 9 9 8 8 8 8 8 7 7 7 6 6 6 6 6 7 7 8 8 8 8 8
14 13 13 13 13 13 13 13 13 12 12 11 11 10 10 10 10 10 10 9 9 9 9 8 8 8 8 8 7 7 6 6 6 5 5 4 5 7 7 7 7 7 7
14 13 13 13 13 13 13 13 13 12 12 12 11 11 11 10 10 10 10 9 9 9 8 8 8 8 8 7 7 7 6 6 6 5 4 4 4 5 5 6 6 6 6
14 13 13 13 13 13 13 13 13 12 12 12 12 11 11 10 10 9 9 9 9 8 8 8 8 7 7 7 7 6 6 5 5 5 5 4 4 3 3 4 5 5 5
13 13 13 13 13 13 13 13 13 12 12 12 11 11 10 10 9 9 9 9 8 8 8 7 7 7 7 7 6 6 6 5 5 5 4 4 3 3 2 2 3 4 5
13 13 13 13 13 13 13 12 12 12 12 11 11 11 10 10 9 9 8 8 8 7 7 7 7 6 6 6 6 5 5 5 5 4 4 4 3 3 3 2 2 2 3
13 12 12 12 12 12 12 12 12 11 11 11 10 10 10 9 9 8 8 8 7 7 6 6 6 6 6 5 5 5 5 5 4 4 4 4 3 3 2 2 2 2 2
13 12 12 12 12 12 11 11 11 11 11 10 10 9 9 9 8 8 7 7 7 6 6 6 6 6 5 5 5 5 4 4 4 4 3 3 3 2 2 1 1 1 1
13 12 12 11 11 11 11 11 11 10 10 10 9 9 9 8 8 7 7 6 6 6 6 5 5 5 5 5 4 4 4 3 3 3 2 2 2 1 1 1 1 0 -0
13 12 11 11 11 10 10 10 10 10 10 9 9 8 8 7 7 7 6 6 6 5 5 5 5 5 4 4 4 3 3 3 2 2 2 1 1 1 0 0 -0 -0 -1
13 12 11 11 10 10 10 10 9 9 9 8 8 8 7 7 6 6 6 5 5 5 5 4 4 4 4 3 3 3 2 2 2 1 1 1 0 -0 -0 -1 -1 -1 -1
13 12 11 10 10 9 9 9 9 8 8 8 7 7 6 6 6 6 5 5 5 5 4 4 4 3 3 3 2 2 1 1 1 0 -0 -0 -1 -1 -1 -1 -2 -2 -2
13 12 11 10 9 9 8 8 8 8 7 7 7 6 6 6 5 5 5 5 4 4 4 3 3 3 2 2 2 1 0 -0 -0 -1 -1 -2 -2 -2 -2 -2 -3 -3 -3
12 11 10 9 9 8 8 7 7 7 7 6 6 6 5 5 5 4 4 4 4 3 3 3 2 2 2 1 1 -0 -1 -1 -1 -2 -2 -3 -3 -3 -3 -3 -3 -3 -3
11 11 10 9 8 8 7 7 7 6 6 6 6 5 5 5 4 4 4 3 3 3 2 2 2 1 1 0 -0 -1 -2 -2 -2 -2 -3 -3 -4 -4 -4 -4 -4 -4 -4
11 10 9 8 8 7 7 6 6 6 6 5 5 5 4 4 4 3 3 3 2 2 2 1 1 0 0 -0 -1 -2 -2 -3 -3 -3 -4 -4 -4 -4 -4 -4 -4 -4 -4
10 9 8 8 7 7 6 6 6 5 5 5 5 4 4 3 3 3 2 2 1 1 1 0 -0 -0 -0 -1 -2 -3 -3 -4 -4 -4 -4 -5 -5 -5 -5 -5 -4 -4 -4
9 8 8 7 7 6 6 6 5 5 5 4 4 4 3 3 2 2 2 1 1 0 -0 -0 -1 -1 -1 -2 -3 -3 -4 -4 -4 -5 -5 -5 -5 -5 -5 -5 -5 -4 -4
8 8 7 7 6 6 5 5 5 4 4 4 3 3 2 2 1 1 1 0 -0 -0 -1 -1 -2 -2 -2 -3 -3 -4 -5 -5 -5 -5 -5 -5 -5 -5 -5 -5 -5 -4 -4
7 7 6 6 6 5 5 4 4 4 4 3 3 2 2 1 1 0 0 -0 -1 -1 -2 -2 -2 -3 -3 -4 -4 -5 -5 -5 -5 -5 -5 -5 -5 -5 -5 -5 -5 -5 -4
7 6 6 5 5 4 4 4 4 3 3 2 2 2 1 1 0 -0 -1 -1 -2 -2 -2 -3 -3 -3 -4 -4 -5 -5 -5 -5 -5 -5 -5 -5 -5 -5 -5 -5 -5 -5 -4
6 5 5 5 4 4 4 3 3 2 2 2 1 1 1 0 -0 -1 -1 -1 -2 -3 -3 -3 -3 -4 -4 -5 -5 -6 -6 -6 -6 -6 -6 -6 -6 -5 -5 -5 -5 -5 -5
5 5 5 4 4 4 3 3 2 2 1 1 1 1 0 -0 -1 -1 -2 -2 -3 -3 -3 -4 -4 -4 -5 -5 -6 -6 -6 -6 -6 -6 -6 -6 -6 -6 -6 -5 -5 -5 -5
5 4 4 4 4 3 3 2 2 1 1 0 0 -0 -1 -1 -1 -2 -2 -3 -3 -4 -4 -5 -5 -5 -5 -6 -6 -6 -6 -6 -6 -6 -6 -6 -6 -6 -6 -6 -6 -6 -6
4 4 4 3 3 3 2 2 1 1 0 -0 -0 -1 -1 -2 -2 -2 -3 -3 -4 -4 -5 -5 -5 -6 -6 -6 -6 -6 -6 -6 -6 -6 -6 -6 -6 -6 -6 -6 -6 -6 -6
4 3 3 3 2 2 2 1 1 0 -1 -1 -1 -1 -2 -2 -3 -3 -3 -3 -4 -5 -5 -5 -6 -6 -6 -6 -6 -6 -7 -6 -6 -6 -6 -7 -7 -7 -7 -7 -7 -7 -7
Wind_Speed
8 7 8 9 9 8 9 8 8 6 5 4 4 3 3 2 1 2 4 5 7 8 7 5 5 6 4 6 6 6 6 6 5 5 7 8 10 13 13 11 11 13 19
9 8 8 8 8 8 8 8 8 7 6 5 4 3 3 2 2 2 4 6 7 8 7 6 4 5 5 6 6 6 5 5 4 4 4 5 5 7 11 10 10 11 12
10 9 9 9 8 8 7 7 8 8 7 6 5 3 2 1 1 1 2 4 6 7 7 6 6 5 5 6 7 7 7 6 5 5 5 5 5 5 4 6 6 7 6
10 9 9 9 8 7 7 8 8 8 7 6 5 4 2 1 2 1 2 3 5 5 6 6 6 5 4 6 7 7 6 7 7 5 7 8 7 6 6 4 5 6 7
10 10 9 9 8 7 7 7 8 7 6 5 4 2 2 1 1 1 1 2 2 3 4 5 5 4 4 6 7 7 7 6 7 7 6 7 7 9 10 11 7 7 8
11 10 9 9 8 6 6 7 7 7 6 5 4 4 3 3 2 2 2 2 2 1 2 3 4 5 4 6 6 7 8 8 8 8 7 8 7 7 9 12 10 10 8
11 10 10 9 8 8 6 7 7 6 5 5 4 4 3 2 1 2 2 3 3 3 3 2 3 4 5 6 6 7 8 8 9 9 9 9 10 9 9 13 14 13 9
11 10 10 9 9 8 7 7 7 6 5 4 3 3 3 1 1 2 2 3 3 3 3 4 5 6 7 7 6 6 8 8 9 11 10 9 9 9 9 10 12 16 14
11 11 10 10 9 8 7 7 6 5 4 3 3 3 2 2 2 3 3 3 3 4 4 5 6 6 7 7 7 7 8 8 9 9 10 10 9 9 9 9 9 12 19
11 11 10 9 8 7 6 6 6 5 4 3 2 1 2 2 2 3 4 5 5 5 6 7 7 8 8 7 8 8 8 9 9 8 10 10 9 8 8 8 9 9 14
12 10 9 9 9 8 7 6 5 4 3 2 1 1 2 2 3 4 5 5 5 6 7 8 8 9 9 9 8 9 9 10 10 10 10 11 10 9 8 8 8 9 10
10 10 10 9 9 8 6 5 4 3 3 2 1 2 2 3 4 5 6 6 7 7 8 8 9 10 10 9 9 10 10 10 11 11 11 11 11 11 9 8 10 10 10
10 9 9 9 8 7 6 5 4 3 3 1 1 3 3 4 5 6 6 7 7 8 8 9 9 10 10 10 10 10 11 11 11 11 11 12 12 13 11 11 11 11 12
10 9 8 8 7 6 5 4 3 3 2 0 2 3 4 5 6 7 7 8 8 9 9 10 10 11 11 11 11 11 11 11 11 11 12 12 13 14 14 14 13 12 12
9 9 8 7 7 6 5 4 3 2 1 1 3 4 5 6 7 7 8 8 9 10 10 11 11 11 10 10 11 10 10 11 11 12 12 14 18 23 20 16 12 12 12
10 9 8 7 6 5 4 3 2 1 0 2 4 5 6 7 7 8 9 9 10 10 11 11 11 11 11 19 24 19 12 10 11 12 12 14 17 22 26 28 26 22 16
9 9 8 6 5 5 4 3 1 0 1 4 6 6 7 8 8 9 9 10 10 10 11 10 11 11 14 23 25 25 16 12 11 12 11 14 15 21 14 20 26 24 27
9 8 7 6 5 4 3 2 1 2 4 6 7 7 7 8 9 9 10 10 9 10 10 11 11 12 15 24 26 26 16 12 12 12 12 14 14 15 17 14 14 14 16
8 7 7 6 4 4 3 2 2 4 5 7 8 8 8 8 9 10 10 10 9 10 10 10 11 12 15 23 25 25 12 11 12 12 12 14 14 22 27 18 15 15 14
8 7 6 4 3 3 2 2 4 5 7 8 7 7 7 8 10 10 11 9 9 11 11 11 11 12 13 20 24 24 10 11 11 11 11 19 21 25 27 17 14 16 14
8 6 5 3 3 2 1 3 6 7 8 7 7 8 8 9 10 10 9 10 10 10 11 12 11 11 14 19 23 24 13 11 12 11 10 11 23 27 28 25 16 20 20
6 5 3 2 2 2 3 5 7 8 7 7 8 9 9 9 9 10 10 10 10 11 11 11 12 9 11 16 20 25 24 22 14 12 10 13 25 28 29 23 22 27 23
5 4 3 2 3 3 4 6 7 7 7 8 9 9 10 9 9 10 10 9 9 9 10 10 11 11 8 12 23 25 26 26 18 13 21 25 29 28 20 22 26 21 10
4 3 2 3 4 5 5 7 8 7 8 9 9 9 9 9 9 8 8 8 8 9 10 11 12 12 11 9 9 10 14 19 17 15 19 25 26 21 20 18 14 8 8
3 3 3 4 6 6 7 8 8 7 8 9 9 9 9 9 9 9 8 10 9 11 13 11 11 13 14 15 23 20 13 12 14 16 12 10 9 9 8 8 8 7 6
2 2 4 6 7 7 8 8 8 8 9 9 9 8 8 8 8 10 11 15 17 23 25 24 23 18 23 29 30 29 29 29 27 20 12 11 10 10 9 9 8 6 6
Wind_Direction
101 91 86 87 87 93 104 114 122 124 116 117 128 130 134 131 143 214 238 241 242 244 241 237 239 241 243 245 244 247 254 258 259 276 284 272 256 254 254 250 249 246 246
113 107 100 93 93 96 102 109 114 114 108 108 109 109 115 133 161 201 229 244 249 249 245 237 235 239 246 255 254 251 256 260 245 246 290 301 297 258 251 247 243 241 238
129 118 106 97 89 86 92 101 102 102 101 106 102 94 92 78 181 216 228 237 245 248 244 243 243 244 241 249 251 246 245 255 251 220 224 260 272 309 294 281 265 252 245
125 120 112 102 95 90 90 96 99 99 104 112 116 134 146 167 201 195 211 231 232 233 238 244 249 249 246 251 252 247 242 244 253 249 233 235 240 273 295 280 283 290 274
128 122 117 114 109 106 103 104 103 104 106 106 112 110 92 79 45 26 345 309 284 247 241 247 255 259 254 256 258 260 252 243 244 244 245 252 254 248 262 278 272 267 260
133 128 124 119 116 114 111 113 111 108 105 100 100 91 76 41 18 354 342 321 304 284 263 255 256 262 260 259 259 257 256 253 252 250 245 245 246 248 253 268 272 271 264
143 144 143 138 136 134 131 125 118 115 111 102 94 91 82 49 16 354 350 336 325 315 302 300 279 273 267 266 261 260 259 256 255 253 253 251 251 250 255 267 276 278 275
153 154 152 145 143 143 140 127 119 114 105 97 87 78 72 50 10 351 328 311 300 296 307 312 295 286 282 277 269 264 260 259 256 258 257 257 256 252 252 259 274 283 283
157 156 153 149 147 146 137 126 122 114 103 94 80 64 49 26 349 327 310 299 294 294 298 292 286 282 279 275 272 266 264 262 259 259 259 259 258 255 255 254 254 270 284
159 158 156 153 148 140 127 121 118 115 109 93 81 55 8 3 337 315 303 296 295 295 294 289 285 282 279 276 276 274 269 269 267 264 264 264 263 260 256 254 256 254 268
163 160 157 149 139 131 130 127 122 119 110 93 67 23 344 331 314 299 294 297 297 298 295 292 291 289 287 284 282 280 281 279 279 278 276 273 271 269 265 262 260 260 261
159 156 150 143 140 140 142 139 135 126 115 93 31 336 317 310 303 300 302 304 301 298 295 293 291 288 287 286 284 285 286 284 284 284 284 284 286 280 276 270 267 266 262
151 149 147 147 146 146 145 141 137 128 115 88 334 310 307 306 301 300 302 302 298 294 291 289 287 286 286 285 282 280 280 278 279 282 284 285 286 284 280 275 272 271 272
151 149 148 147 143 142 139 134 128 119 111 56 300 297 297 297 295 296 297 295 292 290 289 286 284 283 282 281 279 278 277 276 275 275 274 277 276 277 277 277 273 272 271
153 151 151 146 141 140 135 126 121 116 109 293 288 285 289 293 294 293 291 289 287 287 285 284 283 281 281 281 280 277 275 274 276 275 272 273 278 279 280 278 272 267 268
158 152 148 144 145 141 132 125 132 128 79 287 284 288 291 291 288 286 285 286 285 284 284 283 284 284 288 294 296 295 285 277 278 280 279 280 283 284 285 285 284 281 277
151 149 149 145 139 131 128 137 144 122 285 279 279 282 282 282 281 283 286 285 286 285 285 285 286 286 288 296 299 299 297 286 283 282 284 289 288 291 283 283 284 283 282
143 143 138 131 124 120 125 130 150 268 271 272 274 274 273 276 279 281 283 284 283 285 287 289 288 289 292 300 302 302 299 287 283 280 280 282 282 281 284 278 275 271 272
132 131 128 128 130 139 151 167 239 261 267 268 269 269 271 277 281 283 283 284 286 288 287 287 288 289 293 299 302 302 293 287 282 280 281 284 282 285 290 288 280 279 275
115 118 120 125 144 168 164 207 256 265 268 268 270 276 279 280 281 281 282 284 284 285 287 287 286 287 288 296 302 302 294 290 287 283 279 285 288 291 292 288 283 283 282
118 123 132 148 176 180 188 250 264 266 268 274 281 281 279 277 278 279 280 281 282 283 285 287 287 285 289 298 301 302 300 291 290 290 287 283 292 293 293 292 286 284 286
132 140 149 177 195 205 235 258 265 268 275 280 280 279 278 280 284 281 281 280 283 286 287 289 290 285 287 293 297 299 299 300 296 293 290 287 294 295 296 296 292 293 295
151 154 168 210 240 244 248 264 272 278 281 281 279 279 280 279 279 280 283 286 284 284 287 287 290 291 283 287 295 298 299 299 298 291 293 297 299 301 299 295 296 297 294
160 167 190 238 261 267 268 266 273 277 278 280 281 281 283 284 281 280 280 282 282 284 286 288 291 293 290 285 284 283 290 293 293 291 291 295 296 296 293 294 295 288 279
169 182 216 248 264 273 275 274 276 279 279 279 280 282 281 282 284 280 277 281 273 277 287 287 286 292 294 292 296 299 296 293 289 295 290 289 290 288 286 285 285 281 283
181 215 241 254 265 271 275 277 276 275 277 281 281 281 282 282 282 286 288 280 280 289 290 291 292 292 292 298 301 302 301 302 301 301 294 293 291 291 292 293 290 283 281
Height
1514 1513 1513 1513 1514 1515 1517 1518 1520 1523 1525 1527 1529 1531 1532 1534 1535 1536 1536 1537 1537 1537 1537 1537 1536 1536 1535 1535 1534 1533 1532 1530 1529 1526 1522 1518 1518 1516 1514 1513 1511 1511 1510
1514 1514 1514 1514 1515 1516 1518 1519 1521 1523 1524 1526 1528 1529 1531 1532 1532 1533 1533 1534 1534 1533 1533 1533 1532 1532 1531 1530 1529 1528 1527 1525 1525 1523 1519 1512 1508 1507 1506 1506 1504 1504 1503
1514 1515 1515 1515 1516 1517 1518 1520 1521 1523 1524 1526 1527 1528 1529 1530 1531 1531 1531 1531 1530 1530 1530 1529 1528 1527 1526 1525 1525 1524 1522 1520 1520 1519 1517 1512 1504 1501 1499 1500 1500 1499 1498
1513 1514 1515 1515 1517 1518 1519 1520 1522 1523 1524 1525 1527 1527 1528 1529 1529 1529 1529 1528 1528 1527 1526 1525 1524 1523 1522 1521 1520 1519 1517 1516 1514 1513 1511 1509 1505 1501 1491 1489 1491 1492 1491
1512 1513 1514 1515 1517 1518 1520 1521 1522 1523 1524 1525 1526 1527 1527 1528 1528 1527 1527 1526 1525 1524 1523 1522 1521 1519 1518 1517 1515 1514 1512 1510 1508 1507 1505 1503 1500 1497 1492 1482 1481 1481 1481
1511 1512 1514 1515 1517 1518 1520 1521 1522 1523 1524 1525 1525 1526 1526 1526 1525 1525 1524 1523 1522 1521 1520 1518 1517 1515 1514 1512 1510 1508 1507 1505 1503 1501 1499 1496 1494 1490 1487 1479 1473 1471 1470
1509 1511 1513 1514 1516 1518 1519 1521 1522 1522 1523 1524 1524 1524 1524 1523 1523 1522 1521 1520 1518 1517 1516 1514 1512 1511 1509 1507 1505 1502 1500 1498 1496 1494 1491 1489 1486 1484 1481 1475 1468 1463 1460
1507 1509 1511 1513 1515 1517 1518 1520 1521 1521 1522 1522 1522 1522 1521 1520 1520 1518 1517 1516 1514 1513 1511 1509 1508 1505 1503 1501 1498 1496 1493 1491 1488 1486 1483 1481 1478 1477 1474 1470 1465 1456 1450
1504 1507 1510 1512 1513 1515 1517 1518 1519 1519 1520 1520 1520 1519 1518 1517 1516 1515 1513 1512 1510 1508 1506 1504 1502 1500 1497 1495 1492 1489 1486 1483 1480 1478 1475 1472 1470 1468 1466 1463 1461 1456 1444
1502 1505 1508 1510 1512 1513 1515 1516 1517 1517 1517 1517 1516 1516 1515 1514 1512 1511 1509 1507 1505 1503 1501 1499 1496 1493 1491 1488 1485 1481 1478 1475 1472 1470 1466 1463 1461 1458 1456 1454 1452 1449 1443
1499 1502 1505 1508 1510 1511 1512 1513 1514 1514 1514 1514 1513 1512 1511 1510 1508 1507 1505 1503 1501 1498 1496 1493 1490 1487 1484 1481 1477 1474 1470 1467 1464 1461 1458 1454 1452 1449 1447 1444 1442 1439 1436
1497 1500 1503 1505 1507 1508 1510 1511 1511 1511 1511 1511 1510 1509 1508 1506 1504 1502 1500 1498 1495 1493 1490 1486 1483 1480 1476 1473 1469 1465 1462 1458 1455 1451 1448 1445 1443 1439 1437 1434 1431 1429 1426
1494 1497 1500 1502 1504 1505 1507 1508 1508 1508 1508 1507 1506 1505 1504 1502 1500 1498 1495 1492 1489 1486 1483 1479 1476 1472 1468 1465 1461 1457 1453 1449 1446 1442 1439 1435 1433 1428 1426 1423 1420 1418 1416
1491 1494 1497 1499 1501 1503 1504 1504 1505 1504 1504 1503 1502 1501 1499 1497 1495 1492 1490 1486 1483 1479 1476 1472 1468 1464 1460 1456 1452 1448 1444 1440 1436 1433 1429 1426 1423 1419 1416 1413 1410 1408 1405
1488 1491 1494 1496 1498 1500 1501 1501 1501 1501 1500 1499 1498 1496 1494 1492 1489 1486 1483 1480 1476 1473 1469 1465 1461 1457 1453 1449 1444 1440 1435 1431 1427 1423 1420 1416 1413 1410 1408 1404 1401 1399 1396
1485 1488 1491 1493 1495 1496 1497 1498 1497 1497 1496 1495 1493 1491 1489 1486 1483 1480 1477 1473 1469 1466 1462 1457 1453 1449 1445 1441 1437 1433 1427 1422 1418 1413 1410 1407 1404 1401 1398 1396 1393 1391 1388
1482 1485 1488 1490 1492 1493 1493 1494 1493 1493 1492 1490 1488 1486 1483 1480 1477 1474 1470 1466 1462 1458 1454 1450 1446 1441 1437 1433 1429 1424 1420 1414 1410 1405 1401 1398 1395 1392 1389 1385 1383 1381 1379
1479 1482 1485 1487 1488 1489 1490 1490 1489 1489 1487 1485 1483 1481 1478 1474 1471 1467 1464 1460 1456 1451 1447 1443 1438 1433 1429 1425 1421 1416 1411 1406 1401 1398 1394 1390 1386 1384 1380 1376 1373 1370 1368
1476 1479 1482 1484 1485 1486 1486 1486 1485 1484 1482 1480 1478 1475 1472 1468 1465 1461 1457 1453 1449 1444 1440 1435 1430 1425 1420 1417 1412 1408 1402 1397 1393 1390 1386 1383 1378 1375 1373 1369 1364 1360 1358
1474 1477 1479 1481 1482 1482 1482 1481 1480 1479 1477 1475 1472 1470 1466 1463 1458 1454 1450 1446 1442 1436 1432 1427 1423 1418 1413 1409 1405 1401 1395 1389 1384 1381 1378 1375 1371 1368 1365 1361 1356 1351 1348
1472 1474 1476 1478 1478 1478 1478 1477 1476 1474 1472 1469 1467 1464 1460 1456 1452 1447 1443 1439 1434 1429 1424 1419 1414 1410 1405 1401 1397 1393 1389 1383 1377 1373 1369 1366 1363 1359 1356 1353 1348 1344 1340
1470 1472 1474 1474 1475 1474 1474 1472 1470 1469 1466 1463 1460 1457 1453 1449 1445 1441 1436 1432 1427 1421 1416 1410 1405 1401 1397 1393 1388 1385 1381 1377 1371 1365 1361 1357 1354 1351 1347 1343 1339 1336 1333
1468 1470 1470 1471 1471 1470 1469 1467 1465 1463 1460 1457 1453 1450 1446 1442 1438 1434 1429 1424 1419 1414 1408 1403 1397 1391 1388 1384 1381 1377 1373 1368 1364 1358 1354 1350 1346 1342 1337 1334 1330 1327 1324
1466 1467 1467 1467 1467 1466 1464 1462 1460 1457 1454 1450 1446 1443 1438 1434 1430 1426 1422 1417 1412 1407 1401 1396 1390 1383 1379 1375 1371 1367 1363 1359 1355 1350 1345 1341 1337 1333 1329 1325 1322 1319 1316
1463 1463 1463 1463 1462 1461 1459 1457 1454 1451 1447 1443 1439 1435 1431 1426 1422 1418 1414 1409 1404 1401 1395 1389 1384 1377 1370 1367 1365 1361 1355 1351 1346 1342 1336 1332 1328 1324 1320 1317 1314 1312 1309
1459 1459 1459 1458 1457 1455 1453 1450 1448 1444 1440 1435 1431 1427 1423 1418 1414 1408 1403 1399 1396 1392 1387 1382 1378 1371 1366 1360 1356 1352 1348 1343 1339 1335 1329 1325 1321 1318 1314 1311 1307 1305 1302